Location: Costa Valle Imagna
(45.8000°N, 9.5000°E)
Time: 20:00:10
(UTC+00:00)

H-2A R/B - Pass Details

Date: 17 February 2020
Orbit: 529 x 652 km, 98.3° (Epoch: 05 April)

Event Time Altitude Azimuth Distance (km) Brightness Sun altitude
Rises 03:41:05 0° 19° (NNE) 2,897 6.4 -28.6°
Reaches altitude 10° 03:43:19 10° 26° (NNE) 2,004 5.6 -28.2°
Maximum altitude 03:47:32 46° 100° (E) 856 3.5 -27.5°
Enters shadow 03:49:06 32° 150° (SSE) 1,095 3.9 -27.3°
